COSMOS 1691 DEB, 16271

Orbit data source: Space-Track

COSMOS 1691 DEB, 16271 is space debris in LEO originally from a launch on Wed, 09 Oct 1985 UTC launched from the Plesetsk Missile And Space Complex (PKMTR). Debris objects in space refer to the collection of defunct objects orbiting the Earth. Examples of debris include non-operational satellites, rocket bodies, and fragments generated from explosions, collisions, or faulty payload assembly.

Loading next visibility...
Identifier
16271, 1985-094Q
Orbit
LEO
Country
Flag of CISCIS
Related business
Manufacturer
Unknown
Mission
Spacecraft
Bus & Motor
Unknown
Mass
Unknown
Launch date (UTC)
1985-10-09 (40 years ago)
Launch vehicle
Unknown
Launch site
Plesetsk Missile And Space Complex (PKMTR)
Object type
Payload
Rocket body
Debris
Shape & HBR
Unknown shape, 0.1 m
Radar Cross Section
Small (<0.1 m²)

Expand to show TLE details & history
Last TLE update: 20 hours ago

TLE from 20 hours ago
0 COSMOS 1691 DEB
1 16271U 85094Q   25294.80916009  .00000011  00000-0  45061-5 0  9991
2 16271  82.6068  66.0909 0004943 320.9580 193.1281 12.63024067845414
Epoch: 2025-10-21T19:25Z
TLE epoch observation values (Epoch: 2025-10-21T19:25:11.431Z)
Latitude
25.72484°
Longitude
-79.2651°
Altitude
1,417.215 km
Speed
7.152 km/s
True Right ascension
16h 10m 05s
True Declination
25° 36' 07"
Sunlit
Object was in daylight at epoch
Visualization orbit readout
Latitude
Unknown
Longitude
Unknown
Altitude
Unknown
Speed
Unknown
Apparent Right ascension
Unknown
Apparent Declination
Unknown
Sunlit
N/A
Visualization observer readout
Local Sidereal Time
10:06:24
Azimuth
Unknown
Elevation
Unknown
Doppler factor
Unknown
Orbital elements
Apogee altitude
1,411.655 km
Perigee altitude
1,403.957 km
Semi-major axis
7,785.943 km
Eccentricity
0.00049
Inclination
82.6068°
RAAN
66.0909°
Arg. of periapsis
320.958°
True anomaly
193.11524°
Mean anomaly
193.1281°
Eccentric anomaly
193.12167°
Mean motion
3.15919 °/min
Orbital period
113.95 mins
BSTAR
0.0000045061
Loading maneuver chart data...
Computing Atmospheric mass density...
Loading historical data...
Loading historical data...
Loading historical data...
Loading historical data...
Loading historical data...
Loading historical data...
Loading historical data...

Documentation

Showing up to 5 results
|